Terminal Aerodrome Forecast
Issued by NWS Twin Cities, MN

Home | Current Version | Previous Version | Graphics & Text | Print | Product List | Glossary On
Versions: 1 2 3 4 5 6 7 8 9 10 11 12 13 14 15 16 17 18 19 20 21 22 23 24 25
000
FTUS43 KMPX 040238 AAA
TAFMSP
TAF AMD
KMSP 040238Z 0403/0506 29016G25KT P6SM FEW030
     FM040600 29012KT P6SM SKC
     FM041200 28008KT P6SM FEW250
     FM042000 29012G20KT P6SM BKN040=

USA.gov is the U.S. government's official web portal to all federal, state and local government web resources and services.